Location: Haliburton Scout Reserve
(45.0900°N, 78.3200°W)
Time: 02:00:47
(UTC-04:00)

ESTCUBE 1 - Pass Details

Date: 26 May 2022
Orbit: 644 x 659 km, 97.9° (Epoch: 27 June)

Event Time Altitude Azimuth Distance (km) Brightness Sun altitude
Exits shadow 22:23:05 16° 109° (ESE) 1,679 ? -13.5°
Maximum altitude 22:25:31 25° 66° (ENE) 1,307 ? -13.8°
Drops below altitude 10° 22:29:12 10° 11° (N) 2,064 ? -14.2°
Sets 22:31:42 0° 359° (N) 2,977 ? -14.4°
